Location: Sewell
(39.7660°N, 75.1450°W)
Time: 16:50:19
(UTC-05:00)

ISS - Visible Passes

Search period start: 03 December 2016 00:00
Search period end: 13 December 2016 00:00
Orbit: 401 x 410 km, 51.6° (Epoch: 04 December)

Date Brightness Start Highest point End Pass type
(mag) Time Alt. Az. Time Alt. Az. Time Alt. Az.
03 Dec -2.6 17:43:59 10° WSW 17:47:10 47° NNW 17:49:08 20° NE visible
04 Dec -1.1 18:29:46 10° WNW 18:32:01 18° NNW 18:32:01 18° NNW visible
05 Dec -1.6 17:37:09 10° W 17:39:56 24° NNW 17:42:10 13° NNE visible
06 Dec -0.7 18:23:29 10° NW 18:24:57 13° NNW 18:24:57 13° NNW visible
07 Dec -1.0 17:30:40 10° WNW 17:32:47 16° NNW 17:34:54 10° NNE visible
08 Dec -0.6 18:17:08 10° NNW 18:17:46 11° N 18:17:46 11° N visible
09 Dec -0.8 17:24:21 10° NNW 17:25:41 12° N 17:27:02 10° NNE visible
10 Dec -0.7 18:10:00 10° NNW 18:10:33 11° N 18:10:33 11° N visible
11 Dec -0.8 17:17:49 10° NNW 17:18:36 11° N 17:19:24 10° NNE visible
12 Dec -1.0 18:02:07 10° NNW 18:03:25 13° N 18:03:25 13° N visible
